STARLINK-11152, 60194

Orbit data source: Space-Track

STARLINK-11152, 60194 is a payload satellite owned by SpaceX/Seattle (US) in LEO that was launched on Wed, 03 Jul 2024 UTC via an FALCON 9 launch vehicle from the Air Force Eastern Test Range (AFETR). Payload-class satellites include a variety of spacecraft equipped with specific instruments for various scientific and technological missions. These include communications satellites like Starlink; space stations such as the ISS; scientific satellites like the Hubble; Earth observation satellites from companies like Planet Labs, Umbra, and HawkEye 360; GPS; miniature CubeSats for education and research; and military/defense satellites.

Loading next visibility...
Identifier
60194, 2024-124M
Orbit
LEO
Country
Flag of USUS
Related business
Manufacturer
SpaceX/Seattle
Mission
Operational Commercial Communications
Bus & Motor
STARLINK V2MD, Unknown motor
Mass
960 kg wet, ~910 kg dry
Launch date (UTC)
2024-07-03 (1 year ago)
Launch vehicle
FALCON 9
Launch site
Air Force Eastern Test Range (AFETR)
Object type
Payload
Rocket body
Debris
Shape & HBR
Box + 2 Pan, 18.1 m
Radar Cross Section
36.964 m², Large (>1 m²)

Expand to show TLE details & history
Last TLE update: 11 hours ago

TLE from 11 hours ago
0 STARLINK-11152
1 60194U 24124M   25350.98316692 -.00011249  00000-0 -88156-4 0  9993
2 60194  53.1577 208.9976 0001261  98.1038 262.0123 15.69697940 84734
Epoch: 2025-12-16T23:35Z
TLE epoch observation values (Epoch: 2025-12-16T23:35:45.621Z)
Latitude
-0.00004°
Longitude
129.19793°
Altitude
360.794 km
Speed
7.694 km/s
True Right ascension
13h 55m 59s
True Declination
0° 00' 00"
Sunlit
Object was in daylight at epoch
Visualization orbit readout
Latitude
Unknown
Longitude
Unknown
Altitude
Unknown
Speed
Unknown
Apparent Right ascension
Unknown
Apparent Declination
Unknown
Sunlit
N/A
Visualization observer readout
Local Sidereal Time
09:11:00
Azimuth
Unknown
Elevation
Unknown
Doppler factor
Unknown
Orbital elements
Apogee altitude
360.872 km
Perigee altitude
359.173 km
Semi-major axis
6,738.159 km
Eccentricity
0.00013
Inclination
53.1577°
RAAN
208.9976°
Arg. of periapsis
98.1038°
True anomaly
261.99799°
Mean anomaly
262.0123°
Eccentric anomaly
262.00515°
Mean motion
3.92402 °/min
Orbital period
91.74 mins
BSTAR
-0.000088156
Loading maneuver chart data...
Computing Atmospheric mass density...
Loading historical data...
Loading historical data...
Loading historical data...
Loading historical data...
Loading historical data...
Loading historical data...
Loading historical data...

Documentation

Showing up to 5 results
|